Change the Weather History Date:

Saturday, March 22, 2014

  Actual Average (KAKO) Record (KAKO)
Temperature  
Mean Temperature 24 °F 41 °F  
Max Temperature 30 °F 54 °F 77 °F (2009)
Min Temperature 18 °F 27 °F 7 °F (1965)
Degree Days  
Heating Degree Days 41    
Month to date heating degree days  
Cooling Degree Days 0    
Month to date cooling degree days  
Moisture  
Dew Point 21 °F    
Average Humidity 84    
Maximum Humidity 92    
Minimum Humidity 72    
Precipitation  
Precipitation 0.00 in 0.03 in 0.44 in (1979)
Month to date precipitation 0.56  
Year to date precipitation 1.30  
Sea Level Pressure  
Sea Level Pressure 30.22 in    
Wind  
Wind Speed 14 mph (East)    
Max Wind Speed 18 mph    
Max Gust Speed 23 mph    
Visibility 8 miles    
Events Snow    
T = Trace of Precipitation, MM = Missing Value Source: NWS Daily Summary

Daily Weather History Graph

Daily Weather History Graph

Search for Another Location

Airport or City:

Trip Planner

Search our weather history database for the weather conditions in past years. The results will help you decide how hot, cold, wet, or windy it might be!

Date:

Astronomy

Mar. 22, 2014 Rise Set
Actual Time 6:55 AM MDT 7:09 PM MDT
Civil Twilight 6:28 AM MDT 7:36 PM MDT
Nautical Twilight 5:56 AM MDT 8:08 PM MDT
Astronomical Twilight 5:23 AM MDT 8:41 PM MDT
Moon 12:31 AM MDT (3/22) 10:40 AM MDT (3/22)
Length of Visible Light 13h 08m
Length of Day
12h 14m
Waning Gibbous, 65% of the Moon is Illuminated
Mar 22
Waning Gibbous
Mar 23
Last Quarter
Mar 30
New
Apr 7
First Quarter
Apr 15
Full

Hourly Weather History & Observations

Time (MDT) Temp. Windchill Dew Point Humidity Pressure Visibility Wind Dir Wind Speed Gust Speed Precip Events Conditions
12:15 AM 30.2 °F 19.3 °F 22.1 °F 72% 30.17 in 10.0 mi East 15.0 mph - N/A   Overcast
12:35 AM 29.3 °F 18.6 °F 22.1 °F 75% 30.17 in 10.0 mi East 13.8 mph 18.4 mph N/A   Mostly Cloudy
12:55 AM 28.4 °F 18.0 °F 21.7 °F 76% 30.17 in 10.0 mi ENE 12.7 mph - N/A   Scattered Clouds
1:15 AM 28.2 °F 18.3 °F 21.9 °F 77% 30.17 in 10.0 mi East 11.5 mph - N/A   Scattered Clouds
1:35 AM 28.4 °F 17.5 °F 22.1 °F 77% 30.17 in 10.0 mi East 13.8 mph - N/A   Mostly Cloudy
1:55 AM 28.4 °F 16.6 °F 22.1 °F 77% 30.16 in 10.0 mi East 16.1 mph - N/A   Overcast
2:15 AM 28.4 °F 17.5 °F 22.1 °F 77% 30.15 in 10.0 mi East 13.8 mph - N/A   Overcast
2:35 AM 28.4 °F 16.6 °F 22.5 °F 78% 30.15 in 10.0 mi East 16.1 mph - N/A   Overcast
2:55 AM 28.2 °F 16.8 °F 22.8 °F 80% 30.15 in 10.0 mi East 15.0 mph 20.7 mph N/A   Overcast
3:15 AM 27.9 °F 17.3 °F 23.0 °F 82% 30.13 in 10.0 mi East 12.7 mph 19.6 mph N/A   Overcast
3:35 AM 27.5 °F 15.9 °F 23.0 °F 83% 30.13 in 10.0 mi East 15.0 mph 21.9 mph N/A   Overcast
3:55 AM 27.5 °F 16.3 °F 23.7 °F 86% 30.12 in 10.0 mi East 13.8 mph - N/A   Overcast
4:15 AM 27.5 °F 16.8 °F 23.9 °F 86% 30.13 in 10.0 mi ESE 12.7 mph - N/A   Overcast
4:35 AM 27.3 °F 15.2 °F 24.3 °F 88% 30.13 in 10.0 mi ESE 16.1 mph 19.6 mph N/A   Overcast
4:55 AM 27.1 °F 14.9 °F 23.9 °F 88% 30.13 in 10.0 mi ESE 16.1 mph - N/A   Overcast
5:15 AM 26.8 °F 14.9 °F 23.9 °F 89% 30.13 in 10.0 mi ESE 15.0 mph 19.6 mph N/A   Overcast
5:35 AM 26.6 °F 15.7 °F 24.3 °F 91% 30.13 in 10.0 mi ESE 12.7 mph 19.6 mph N/A   Overcast
5:55 AM 26.6 °F 14.3 °F 23.9 °F 90% 30.13 in 10.0 mi ESE 16.1 mph - N/A   Overcast
6:15 AM 27.0 °F 17.3 °F 23.5 °F 87% 30.14 in 10.0 mi ESE 10.4 mph - N/A   Overcast
6:35 AM 27.0 °F 15.2 °F 23.0 °F 85% 30.14 in 10.0 mi ESE 15.0 mph - N/A   Overcast
6:55 AM 27.0 °F 16.1 °F 22.8 °F 84% 30.15 in 10.0 mi SE 12.7 mph - N/A   Overcast
7:15 AM 26.8 °F 15.9 °F 22.6 °F 84% 30.16 in 10.0 mi SE 12.7 mph - N/A   Overcast
7:35 AM 26.6 °F 15.7 °F 22.3 °F 84% 30.15 in 10.0 mi SE 12.7 mph 19.6 mph N/A   Overcast
7:55 AM 26.6 °F 15.2 °F 22.6 °F 85% 30.16 in 10.0 mi SE 13.8 mph - N/A   Overcast
8:15 AM 26.6 °F 14.3 °F 22.5 °F 84% 30.17 in 10.0 mi SE 16.1 mph 19.6 mph N/A   Overcast
8:35 AM 26.4 °F 15.0 °F 22.1 °F 84% 30.16 in 10.0 mi SE 13.8 mph 19.6 mph N/A   Overcast
8:55 AM 26.6 °F 14.7 °F 22.1 °F 83% 30.16 in 10.0 mi SE 15.0 mph 19.6 mph N/A   Overcast
9:15 AM 27.0 °F 14.7 °F 21.7 °F 81% 30.17 in 10.0 mi SE 16.1 mph 23.0 mph N/A   Overcast
9:35 AM 26.6 °F 15.2 °F 21.9 °F 82% 30.17 in 10.0 mi ESE 13.8 mph 20.7 mph N/A   Overcast
9:55 AM 27.3 °F 15.2 °F 21.4 °F 78% 30.17 in 10.0 mi ESE 16.1 mph 21.9 mph N/A   Overcast
10:15 AM 27.1 °F 14.9 °F 20.3 °F 75% 30.17 in 10.0 mi SE 16.1 mph - N/A   Overcast
10:35 AM 27.3 °F 14.4 °F 20.8 °F 77% 30.17 in 10.0 mi ESE 18.4 mph 23.0 mph N/A   Overcast
10:55 AM 27.5 °F 16.3 °F 20.5 °F 75% 30.17 in 10.0 mi ESE 13.8 mph 21.9 mph N/A Snow Light Snow
11:15 AM 27.1 °F 14.5 °F 21.0 °F 78% 30.17 in 3.0 mi ESE 17.3 mph - N/A Snow Light Snow
11:35 AM 27.1 °F 14.5 °F 21.7 °F 80% 30.17 in 2.0 mi ESE 17.3 mph - N/A Snow Light Snow
11:55 AM 27.7 °F 15.6 °F 22.8 °F 82% 30.17 in 1.2 mi ESE 16.1 mph 20.7 mph N/A Snow Light Snow
12:15 PM 28.2 °F 16.3 °F 23.7 °F 83% 30.17 in 1.5 mi ESE 16.1 mph 19.6 mph N/A Snow Light Snow
12:35 PM 28.4 °F 17.5 °F 24.6 °F 86% 30.17 in 0.5 mi East 13.8 mph - N/A Snow Light Snow
12:55 PM 28.8 °F 17.9 °F 25.0 °F 86% 30.18 in 1.5 mi East 13.8 mph - N/A Snow Light Snow
1:15 PM 28.8 °F 17.5 °F 25.2 °F 86% 30.18 in 1.2 mi East 15.0 mph - N/A Snow Light Snow
1:35 PM 29.1 °F 17.9 °F 25.0 °F 85% 30.18 in 1.8 mi East 15.0 mph 18.4 mph N/A Snow Light Snow
1:55 PM 29.1 °F 18.4 °F 25.0 °F 85% 30.20 in 2.0 mi East 13.8 mph - N/A Snow Light Snow
2:15 PM 29.1 °F 18.9 °F 25.0 °F 85% 30.20 in 2.0 mi East 12.7 mph - N/A Snow Light Snow
2:35 PM 29.3 °F 18.6 °F 25.2 °F 85% 30.20 in 1.5 mi East 13.8 mph - N/A Snow Light Snow
2:55 PM 28.9 °F 18.6 °F 25.0 °F 85% 30.20 in 1.5 mi East 12.7 mph - N/A Snow Light Snow
3:15 PM 26.8 °F 14.5 °F 24.6 °F 92% 30.20 in 0.8 mi East 16.1 mph 21.9 mph N/A Snow Light Snow
3:35 PM 27.1 °F 14.1 °F 24.6 °F 90% 30.21 in 1.0 mi ENE 18.4 mph - N/A Snow Light Snow
3:55 PM 26.8 °F 14.5 °F 23.9 °F 89% 30.22 in 1.2 mi ENE 16.1 mph - N/A Snow Light Snow
4:15 PM 27.0 °F 14.7 °F 23.9 °F 88% 30.23 in 2.5 mi ENE 16.1 mph - N/A Snow Light Snow
4:35 PM 26.6 °F 13.8 °F 23.2 °F 87% 30.24 in 1.5 mi ENE 17.3 mph - N/A Snow Light Snow
4:55 PM 26.1 °F 13.6 °F 22.3 °F 86% 30.25 in 4.0 mi ENE 16.1 mph 20.7 mph N/A   Overcast
5:15 PM 24.6 °F 11.3 °F 21.6 °F 88% 30.26 in 10.0 mi ENE 17.3 mph - N/A   Overcast
5:35 PM 23.9 °F 11.7 °F 20.7 °F 87% 30.28 in 10.0 mi ENE 13.8 mph - N/A   Overcast
5:55 PM 23.0 °F 10.6 °F 19.4 °F 86% 30.29 in 10.0 mi ENE 13.8 mph - N/A   Overcast
6:15 PM 22.6 °F 10.7 °F 19.0 °F 86% 30.30 in 10.0 mi ENE 12.7 mph - N/A   Overcast
6:35 PM 22.6 °F 9.2 °F 19.2 °F 87% 30.31 in 10.0 mi ENE 16.1 mph - N/A   Overcast
6:55 PM 21.7 °F 8.5 °F 18.5 °F 87% 30.32 in 10.0 mi ENE 15.0 mph - N/A   Overcast
7:15 PM 21.6 °F 8.8 °F 18.0 °F 86% 30.33 in 10.0 mi ENE 13.8 mph - N/A   Overcast
7:35 PM 21.6 °F - 17.8 °F 85% 30.34 in 10.0 mi North - - N/A Snow Light Snow
7:55 PM 21.0 °F 8.1 °F 17.8 °F 87% 30.35 in 10.0 mi East 13.8 mph - N/A   Overcast
8:15 PM 20.8 °F 10.4 °F 17.6 °F 87% 30.37 in 10.0 mi ENE 9.2 mph - N/A   Overcast
8:35 PM 20.7 °F 9.5 °F 17.6 °F 88% 30.37 in 10.0 mi ENE 10.4 mph - N/A Snow Light Snow
8:55 PM 20.1 °F 8.1 °F 17.2 °F 89% 30.38 in 10.0 mi ENE 11.5 mph - N/A Snow Light Snow
9:15 PM 19.9 °F 8.6 °F 17.1 °F 89% 30.38 in 10.0 mi East 10.4 mph - N/A   Overcast
9:35 PM 19.4 °F 8.6 °F 16.7 °F 89% 30.38 in 10.0 mi East 9.2 mph - N/A   Overcast
9:55 PM 19.2 °F 8.4 °F 16.0 °F 87% 30.38 in 10.0 mi East 9.2 mph - N/A   Overcast
10:15 PM 19.0 °F 9.0 °F 16.0 °F 88% 30.38 in 10.0 mi East 8.1 mph - N/A   Overcast
10:35 PM 19.2 °F 9.3 °F 16.3 °F 89% 30.38 in 10.0 mi ESE 8.1 mph - N/A   Overcast
10:55 PM 18.9 °F 9.8 °F 15.8 °F 88% 30.39 in 10.0 mi ESE 6.9 mph - N/A   Overcast
11:15 PM 19.0 °F 9.0 °F 16.3 °F 89% 30.38 in 10.0 mi East 8.1 mph - N/A   Overcast
11:35 PM 18.7 °F 9.5 °F 16.3 °F 91% 30.38 in 10.0 mi ESE 6.9 mph - N/A   Overcast
11:55 PM 18.9 °F 9.8 °F 16.5 °F 91% 30.37 in 10.0 mi East 6.9 mph - N/A   Overcast